Change the Weather History Date:

Sunday, February 3, 2013

  Actual Average Record
Temperature  
Mean Temperature 53 °F -  
Max Temperature 67 °F 61 °F 67 °F (2013)
Min Temperature 38 °F 40 °F 32 °F (2015)
Degree Days  
Heating Degree Days 12    
Growing Degree Days 3 (Base 50)    
Moisture  
Dew Point 37 °F    
Average Humidity 59    
Maximum Humidity 100    
Minimum Humidity 21    
Precipitation  
Precipitation 0.00 in - - ()
Sea Level Pressure  
Sea Level Pressure 30.22 in    
Wind  
Wind Speed 2 mph (NNW)    
Max Wind Speed 9 mph    
Max Gust Speed -    
Visibility 9 miles    
Events Fog    
Averages and records for this station are not official NWS values.
T = Trace of Precipitation, MM = Missing Value Source: NWS Daily Summary

Daily Weather History Graph

Daily Weather History Graph

Search for Another Location

Airport or City:

Trip Planner

Search our weather history database for the weather conditions in past years. The results will help you decide how hot, cold, wet, or windy it might be!

Date:

Astronomy

Feb. 03, 2013 Rise Set
Actual Time 6:49 AM CST 5:37 PM CST
Civil Twilight 6:24 AM CST 6:02 PM CST
Nautical Twilight 5:55 AM CST 6:31 PM CST
Astronomical Twilight 5:27 AM CST 6:59 PM CST
Moon 12:16 AM CST (2/3) 11:17 AM CST (2/3)
Length of Visible Light 11h 38m
Length of Day
10h 47m
Waning Gibbous, 48% of the Moon is Illuminated
Feb 3
Waning Gibbous
Feb 10
New
Feb 17
First Quarter
Feb 25
Full
Mar 4
Last Quarter

Hourly Weather History & Observations

Time (CST) Temp. Dew Point Humidity Pressure Visibility Wind Dir Wind Speed Gust Speed Precip Events Conditions
12:15 AM - - N/A% 30.24 in 10.0 mi Calm Calm - N/A   Unknown
12:35 AM - - N/A% 30.24 in 10.0 mi Calm Calm - N/A   Unknown
12:55 AM - - N/A% 30.24 in 1.8 mi Calm Calm - N/A   Mist
1:15 AM - - N/A% 30.25 in 7.0 mi NNW 3.5 mph - N/A   Unknown
1:35 AM - - N/A% 30.24 in 10.0 mi Calm Calm - N/A   Unknown
1:55 AM 51.3 °F 51.3 °F 100% 30.24 in 10.0 mi NNE 3.5 mph - N/A   Unknown
2:15 AM 51.3 °F 51.3 °F 100% 30.25 in 10.0 mi North 3.5 mph - N/A   Unknown
2:35 AM 51.3 °F 51.3 °F 100% 30.24 in 10.0 mi Calm Calm - N/A   Unknown
2:55 AM - - N/A% 30.24 in 10.0 mi Calm Calm - N/A   Unknown
3:15 AM - - N/A% 30.24 in 4.0 mi Calm Calm - N/A   Haze
3:35 AM - - N/A% 30.24 in 0.8 mi Calm Calm - N/A   Mist
3:55 AM - - N/A% 30.24 in 0.5 mi Calm Calm - N/A Fog Fog
4:15 AM - - N/A% 30.24 in 1.0 mi Calm Calm - N/A   Mist
4:35 AM - - N/A% 30.23 in 1.2 mi Calm Calm - N/A   Mist
4:55 AM - - N/A% 30.24 in 2.0 mi Calm Calm - N/A   Mist
5:15 AM - - N/A% 30.24 in 5.0 mi Calm Calm - N/A   Haze
5:35 AM - - N/A% 30.25 in 10.0 mi Calm Calm - N/A   Unknown
5:55 AM - - N/A% 30.26 in 10.0 mi Calm Calm - N/A   Unknown
6:15 AM - - N/A% 30.26 in 10.0 mi Calm Calm - N/A   Unknown
6:35 AM - - N/A% 30.27 in 4.0 mi Calm Calm - N/A   Haze
6:55 AM - - N/A% 30.28 in 10.0 mi Calm Calm - N/A   Unknown
7:15 AM - - N/A% 30.28 in 10.0 mi Calm Calm - N/A   Unknown
7:35 AM - - N/A% 30.29 in 10.0 mi Calm Calm - N/A   Unknown
7:55 AM - - N/A% 30.29 in 10.0 mi Calm Calm - N/A   Unknown
8:15 AM - - N/A% 30.29 in 10.0 mi Calm Calm - N/A   Unknown
8:55 AM 52.5 °F 45.9 °F 78% 30.29 in 10.0 mi Calm Calm - N/A   Unknown
9:15 AM 54.9 °F 45.1 °F 70% 30.30 in 10.0 mi Calm Calm - N/A   Unknown
9:35 AM 56.8 °F 42.3 °F 58% 30.30 in 10.0 mi Calm Calm - N/A   Unknown
9:55 AM 59.0 °F 40.8 °F 51% 30.30 in 10.0 mi NNE 5.8 mph - N/A   Unknown
10:15 AM 59.9 °F 39.7 °F 47% 30.31 in 10.0 mi NNW 8.1 mph - N/A   Unknown
10:35 AM 60.3 °F 38.5 °F 44% 30.30 in 10.0 mi NNW 9.2 mph - N/A   Unknown
10:55 AM 60.8 °F 37.9 °F 43% 30.29 in 10.0 mi NNE 3.5 mph - N/A   Unknown
11:15 AM 62.2 °F 35.6 °F 37% 30.28 in 10.0 mi NNE 8.1 mph - N/A   Unknown
11:35 AM 62.6 °F 35.1 °F 36% 30.28 in 10.0 mi NNW 5.8 mph - N/A   Unknown
11:55 AM 63.0 °F 33.8 °F 34% 30.27 in 10.0 mi North 8.1 mph - N/A   Unknown
12:15 PM 64.2 °F 35.1 °F 34% 30.25 in 10.0 mi North 8.1 mph - N/A   Unknown
12:35 PM 64.4 °F 31.8 °F 30% 30.24 in 10.0 mi North 9.2 mph - N/A   Unknown
12:55 PM 64.9 °F 32.7 °F 30% 30.23 in 10.0 mi WNW 5.8 mph - N/A   Unknown
1:15 PM 65.8 °F 31.8 °F 28% 30.22 in 10.0 mi NW 5.8 mph - N/A   Unknown
1:35 PM 66.2 °F 29.1 °F 25% 30.21 in 10.0 mi NW 9.2 mph - N/A   Unknown
2:15 PM 66.7 °F 27.9 °F 23% 30.19 in 10.0 mi NNW 3.5 mph - N/A   Unknown
2:35 PM 66.6 °F 27.9 °F 23% 30.19 in 10.0 mi NW 5.8 mph - N/A   Unknown
2:55 PM 66.2 °F 26.2 °F 22% 30.18 in 10.0 mi NNW 6.9 mph - N/A   Unknown
3:15 PM 67.1 °F 26.8 °F 22% 30.17 in 10.0 mi WNW 8.1 mph - N/A   Unknown
3:35 PM 66.9 °F 25.5 °F 21% 30.17 in 10.0 mi NW 5.8 mph - N/A   Unknown
3:55 PM 66.6 °F 25.0 °F 21% 30.17 in 10.0 mi WNW 5.8 mph - N/A   Unknown
4:15 PM 66.4 °F 25.3 °F 21% 30.17 in 10.0 mi NW 6.9 mph - N/A   Unknown
4:35 PM 65.8 °F 25.2 °F 21% 30.16 in 10.0 mi NW 3.5 mph - N/A   Unknown
4:55 PM 64.9 °F 29.5 °F 26% 30.16 in 10.0 mi West 3.5 mph - N/A   Unknown
5:15 PM 63.3 °F 31.5 °F 30% 30.16 in 10.0 mi West 3.5 mph - N/A   Unknown
5:35 PM 57.6 °F 38.7 °F 49% 30.16 in 10.0 mi Calm Calm - N/A   Unknown
5:55 PM 51.8 °F 41.7 °F 68% 30.16 in 10.0 mi Calm Calm - N/A   Unknown
6:15 PM 51.4 °F 40.6 °F 67% 30.16 in 10.0 mi Calm Calm - N/A   Unknown
6:35 PM 48.7 °F 41.0 °F 75% 30.16 in 10.0 mi Calm Calm - N/A   Unknown
6:55 PM 48.4 °F 40.6 °F 75% 30.16 in 10.0 mi Calm Calm - N/A   Unknown
7:15 PM 46.9 °F 40.1 °F 77% 30.17 in 10.0 mi Calm Calm - N/A   Unknown
7:35 PM 45.3 °F 40.3 °F 83% 30.17 in 10.0 mi Calm Calm - N/A   Unknown
7:55 PM 45.1 °F 39.6 °F 81% 30.17 in 10.0 mi Calm Calm - N/A   Unknown
8:15 PM 44.4 °F 39.2 °F 82% 30.17 in 10.0 mi Calm Calm - N/A   Unknown
8:35 PM 44.6 °F 38.5 °F 79% 30.17 in 10.0 mi Calm Calm - N/A   Unknown
8:55 PM 43.5 °F 43.5 °F 100% 30.17 in 10.0 mi Calm Calm - N/A   Unknown
9:15 PM 42.8 °F 42.8 °F 100% 30.17 in 10.0 mi Calm Calm - N/A   Unknown
9:35 PM 41.0 °F 41.0 °F 100% 30.17 in 10.0 mi Calm Calm - N/A   Unknown
9:55 PM 41.5 °F 41.5 °F 100% 30.18 in 10.0 mi Calm Calm - N/A   Unknown
10:15 PM 41.9 °F 41.9 °F 100% 30.17 in 10.0 mi Calm Calm - N/A   Unknown
10:35 PM 39.4 °F 39.4 °F 100% 30.18 in 10.0 mi Calm Calm - N/A   Unknown
10:55 PM - - N/A% 30.18 in 10.0 mi Calm Calm - N/A   Unknown
11:15 PM 39.0 °F 39.0 °F 100% 30.16 in 10.0 mi Calm Calm - N/A   Unknown
11:35 PM - - N/A% 30.16 in 10.0 mi Calm Calm - N/A   Unknown
11:55 PM 38.8 °F 38.8 °F 100% 30.16 in 10.0 mi Calm Calm - N/A   Unknown